W1HS Weather Reports


Display with metric or nautical units.
time (UTC)temp
F
wind
direction
speed
MPH
gust
MPH
rain 1hr
in
rain 24hr
in
rain mn
in
humidity
%
barometer
mb
20260510160219 60 248 9.0 12.0 0.00 0.25 0.02 78 992.2
20260510155222 59 248 9.0 12.0 0.00 0.25 0.02 78 992.1
20260510154222 59 225 6.0 10.0 0.00 0.26 0.02 79 992.1
20260510153220 58 225 4.0 7.0 0.00 0.27 0.02 81 992.2
20260510152220 57 0.0 1.0 0.00 0.27 0.02 82 992.0
20260510151220 57 225 2.0 5.0 0.00 0.29 0.02 82 991.8
20260510150221 57 225 3.0 7.0 0.00 0.29 0.02 83 991.9
20260510145219 57 225 2.0 5.0 0.00 0.30 0.02 83 991.9
20260510144219 56 180 4.0 6.0 0.00 0.31 0.02 85 991.8
20260510143219 55 225 5.0 9.0 0.00 0.31 0.02 84 991.8
20260510142221 55 225 4.0 9.0 0.00 0.32 0.02 86 991.9
20260510141220 55 225 1.0 3.0 0.00 0.33 0.02 87 991.8
20260510140222 54 203 4.0 7.0 0.00 0.33 0.02 88 991.7
20260510135219 54 248 7.0 10.0 0.00 0.34 0.02 89 991.7
20260510134219 53 180 4.0 7.0 0.00 0.34 0.02 90 991.8
20260510133219 53 225 6.0 10.0 0.00 0.34 0.02 90 992.0
20260510132219 53 225 4.0 11.0 0.00 0.34 0.02 90 991.9
20260510131219 53 225 5.0 10.0 0.00 0.34 0.02 91 991.8
20260510130219 52 225 7.0 11.0 0.00 0.34 0.02 91 991.4
20260510125220 52 203 10.0 16.0 0.00 0.34 0.02 92 991.5
20260510124219 52 180 4.0 9.0 0.00 0.34 0.02 94 991.8
20260510123219 51 203 5.0 10.0 0.00 0.34 0.02 94 991.7
20260510122219 51 225 3.0 8.0 0.00 0.34 0.02 94 991.7
20260510121221 51 203 7.0 17.0 0.00 0.34 0.02 95 991.4
20260510120219 50 225 6.0 10.0 0.00 0.34 0.02 96 991.6
20260510115219 50 225 7.0 10.0 0.00 0.34 0.02 96 991.7
20260510114219 50 225 2.0 6.0 0.00 0.34 0.02 96 991.4
20260510113219 50 225 5.0 10.0 0.00 0.34 0.02 96 991.2
20260510112219 50 225 5.0 10.0 0.00 0.34 0.02 96 991.4
20260510111219 50 225 3.0 5.0 0.00 0.34 0.02 96 991.5
20260510110219 49 225 2.0 5.0 0.00 0.34 0.02 96 991.3
20260510105219 49 203 2.0 4.0 0.00 0.34 0.02 96 991.1
20260510104219 49 225 3.0 7.0 0.00 0.34 0.02 95 991.0
20260510103220 49 225 5.0 8.0 0.00 0.34 0.02 96 990.7
20260510102219 50 248 6.0 7.0 0.00 0.34 0.02 96 990.7
20260510101219 49 0.0 2.0 0.00 0.34 0.02 96 990.3
20260510100219 49 248 2.0 5.0 0.00 0.34 0.02 96 989.8
20260510095219 49 180 4.0 8.0 0.00 0.34 0.02 96 989.7
20260510094219 49 225 4.0 6.0 0.00 0.34 0.02 96 990.1
20260510093219 49 0.0 1.0 0.00 0.34 0.02 96 989.9
20260510092219 49 203 5.0 10.0 0.00 0.34 0.02 96 989.6
20260510091219 49 225 3.0 7.0 0.00 0.34 0.02 96 989.7
20260510090219 49 225 5.0 9.0 0.00 0.34 0.02 96 989.7
20260510085221 49 203 2.0 6.0 0.00 0.34 0.02 96 989.8
20260510084219 49 0.0 1.0 0.00 0.34 0.02 96 990.1
20260510083219 50 225 1.0 2.0 0.00 0.34 0.02 96 990.2
20260510082219 50 0.0 3.0 0.00 0.34 0.02 96 990.2
20260510081221 50 225 1.0 4.0 0.00 0.34 0.02 96 990.2
20260510080221 49 225 2.0 5.0 0.00 0.34 0.02 96 990.2
20260510075218 49 225 1.0 4.0 0.00 0.34 0.02 96 990.2
20260510074219 49 225 2.0 8.0 0.00 0.34 0.02 96 990.3
20260510073218 50 203 1.0 4.0 0.00 0.34 0.02 96 990.3
20260510072219 50 180 4.0 10.0 0.00 0.34 0.02 96 990.4
20260510071219 50 203 1.0 4.0 0.00 0.34 0.02 96 990.2
20260510070219 50 225 3.0 6.0 0.01 0.34 0.02 96 990.2
20260510065219 50 248 6.0 10.0 0.01 0.34 0.02 96 990.3
20260510064219 50 248 3.0 8.0 0.01 0.34 0.02 96 990.4
20260510063219 49 180 5.0 11.0 0.01 0.34 0.02 96 990.2
20260510062349 49 225 3.0 7.0 0.01 0.34 0.02 96 990.4
20260510061219 49 180 2.0 5.0 0.01 0.34 0.02 95 990.0
20260510060219 49 203 1.0 4.0 0.00 0.33 0.01 95 990.3
20260510055219 49 203 2.0 3.0 0.00 0.33 0.01 95 990.5
20260510053223 49 0.0 1.0 0.00 0.33 0.01 95 990.6
20260510052219 49 0.0 1.0 0.00 0.33 0.01 95 990.5
20260510051219 49 180 1.0 2.0 0.01 0.33 0.01 95 990.5
20260510050218 49 203 1.0 4.0 0.01 0.33 0.01 95 990.6
20260510045221 49 203 1.0 2.0 0.01 0.33 0.01 95 990.7
20260510044218 49 225 1.0 3.0 0.01 0.33 0.01 95 990.8
20260510043219 48 0.0 1.0 0.01 0.33 0.01 95 990.5
20260510042218 48 203 1.0 4.0 0.01 0.33 0.01 95 990.6
20260510041218 48 203 2.0 4.0 0.00 0.32 0.00 95 990.7
20260510040218 48 199 3.0 0.0 0.00 0.32 0.00 94 990.7
20260510035219 48 158 3.0 5.0 0.00 0.32 0.32 94 990.6
20260510034219 48 180 5.0 9.0 0.00 0.32 0.32 94 990.6
20260510033218 48 0.0 1.0 0.00 0.32 0.32 94 990.6
20260510032221 48 203 3.0 6.0 0.00 0.32 0.32 94 990.7
20260510031219 48 225 1.0 4.0 0.00 0.32 0.32 94 990.7
20260510030218 48 180 3.0 6.0 0.00 0.32 0.32 94 990.7
20260510025220 47 180 4.0 7.0 0.00 0.32 0.32 94 990.6
20260510024218 47 180 4.0 7.0 0.00 0.32 0.32 94 990.8
20260510023218 47 225 5.0 9.0 0.00 0.32 0.32 94 991.1
20260510022218 47 180 2.0 7.0 0.00 0.32 0.32 94 991.0
20260510021219 48 203 2.0 6.0 0.00 0.32 0.32 94 991.1
20260510020219 47 180 3.0 6.0 0.00 0.32 0.32 94 991.0
20260510015218 47 203 1.0 3.0 0.00 0.32 0.32 94 991.2
20260510014218 47 180 1.0 3.0 0.00 0.32 0.32 94 991.2
20260510013218 47 203 2.0 6.0 0.00 0.32 0.32 94 991.2
20260510012218 47 0.0 0.0 0.00 0.32 0.32 94 991.1
20260510011218 47 180 4.0 8.0 0.00 0.32 0.32 94 991.1
20260510010218 47 180 2.0 5.0 0.00 0.32 0.32 94 991.1
20260510005218 47 180 1.0 4.0 0.00 0.32 0.32 94 991.1
20260510004218 47 158 6.0 8.0 0.00 0.32 0.32 94 991.0
20260510003218 47 180 4.0 5.0 0.00 0.32 0.32 94 990.8
20260510002218 47 0.0 3.0 0.00 0.32 0.32 94 990.7
20260510001219 47 0.0 2.0 0.00 0.32 0.32 94 990.6
20260510000219 47 158 2.0 6.0 0.00 0.32 0.32 94 990.4
20260509235218 47 0.0 1.0 0.00 0.32 0.32 94 990.4
20260509234220 47 0.0 0.0 0.00 0.32 0.32 94 990.3
20260509233218 47 0.0 0.0 0.00 0.32 0.32 94 990.2
20260509232219 47 0.0 0.0 0.00 0.32 0.32 94 990.3
20260509231218 48 0.0 0.0 0.00 0.32 0.32 94 990.4
20260509230220 48 0.0 0.0 0.00 0.32 0.32 94 990.3
20260509225218 48 0.0 0.0 0.00 0.32 0.32 94 990.3
20260509224218 48 0.0 1.0 0.00 0.32 0.32 95 990.3
20260509223218 48 0.0 0.0 0.00 0.32 0.32 95 990.2
20260509222219 48 0.0 0.0 0.00 0.32 0.32 95 990.1
20260509221218 48 225 2.0 4.0 0.00 0.32 0.32 95 990.2
20260509220218 47 0.0 0.0 0.00 0.32 0.32 95 990.1
20260509215218 47 225 2.0 4.0 0.01 0.32 0.32 95 990.2
20260509214218 47 0.0 2.0 0.01 0.32 0.32 94 990.3
20260509213218 47 0.0 1.0 0.01 0.32 0.32 94 990.4
20260509212218 47 0.0 0.0 0.02 0.32 0.32 95 990.5
20260509211218 47 0.0 0.0 0.03 0.32 0.32 95 990.6
20260509210218 47 0.0 0.0 0.03 0.32 0.32 94 990.7
20260509205218 47 248 1.0 3.0 0.03 0.31 0.31 94 990.7
20260509204218 47 225 2.0 3.0 0.04 0.31 0.31 94 990.7
20260509203220 47 225 1.0 3.0 0.04 0.31 0.31 94 990.5
20260509202218 47 225 3.0 5.0 0.05 0.30 0.30 94 990.6
20260509201218 47 270 3.0 7.0 0.05 0.29 0.29 94 990.6
20260509200218 47 203 1.0 4.0 0.06 0.29 0.29 94 990.6
20260509195218 47 0.0 0.0 0.05 0.28 0.28 94 990.9
20260509194218 46 180 2.0 4.0 0.05 0.27 0.27 94 991.0
20260509193218 46 0.0 0.0 0.06 0.27 0.27 94 991.0
20260509192218 47 0.0 1.0 0.05 0.25 0.25 94 991.1
20260509191218 47 0.0 0.0 0.05 0.24 0.24 94 991.2
20260509190218 47 270 2.0 3.0 0.05 0.23 0.23 94 991.4
20260509185220 47 0.0 2.0 0.06 0.23 0.23 94 991.6
20260509184218 47 0.0 1.0 0.06 0.22 0.22 95 991.6
20260509183220 47 158 2.0 7.0 0.06 0.21 0.21 94 991.6
20260509182220 47 0.0 0.0 0.06 0.20 0.20 95 991.8
20260509181220 47 0.0 1.0 0.06 0.19 0.19 95 991.7
20260509180222 47 203 1.0 2.0 0.06 0.18 0.18 95 991.7
20260509175220 47 0.0 3.0 0.05 0.17 0.17 95 991.8
20260509174220 46 0.0 0.0 0.04 0.16 0.16 95 991.9
20260509173349 46 0.0 0.0 0.04 0.15 0.15 95 992.0
20260509172520 46 0.0 1.0 0.03 0.14 0.14 95 992.1
20260509171520 46 0.0 1.0 0.03 0.13 0.13 95 992.2
20260509170520 45 0.0 1.0 0.03 0.13 0.13 95 992.2
20260509165522 45 225 2.0 5.0 0.03 0.12 0.12 95 992.3
20260509164519 44 0.0 1.0 0.04 0.12 0.12 94 992.4
20260509163520 44 225 2.0 4.0 0.04 0.11 0.11 94 992.6
20260509162519 44 225 3.0 4.0 0.04 0.11 0.11 94 992.6
20260509161520 44 225 1.0 3.0 0.04 0.10 0.10 94 992.8